[[{"header":{"parameterUnit":"m.s-1","parameterCategory":1,"la1":30.2991,"la2":30.254,"lo1":-89.0895,"lo2":-89.0444,"dy":0.0017,"dx":0.0017,"nx":28,"ny":28,"refTime":"2024-02-24T03:00:00:Z","depth":0,"parameterNumber":2,"parameterNumberName":"U-component_of_WINDS"},"data":[0,0,0,0,0,0,0,0,0,0,0,0,0,0,0,0,0,0,0,0,0,0,0,0,0,0,0,0,0,0,0,0,0,0,0,0,0,0,0,0,0,0,0,0,0,0,0,0,0,0,0,0,0,0,0,0,0,0,3.4414,3.4415,0,3.4518,3.4519,3.4521,3.4497,3.4495,3.4493,3.4491,3.46,3.4604,3.4609,0,0,0,0,0,0,0,0,0,0,0,0,0,3.4198,3.4202,3.4414,3.4415,3.4417,3.4518,3.4519,3.4521,3.4497,3.4494,3.4492,3.449,3.4598,3.4604,3.4609,0,0,0,0,0,0,0,0,0,0,0,0,0,3.4296,3.4203,3.4414,3.4417,3.4418,3.4518,3.452,3.4521,3.4497,3.4494,3.4491,3.4489,3.4596,3.4603,3.461,3.4714,0,0,3.4632,3.4635,0,0,0,0,0,0,0,0,3.429,3.4304,3.4415,3.4417,3.4418,3.4491,3.4483,3.4586,3.4498,3.4467,3.4491,3.4487,3.4566,3.4576,3.4602,3.4719,3.4724,3.4633,3.4637,3.464,3.4642,0,0,0,0,0,0,0,3.4284,3.4299,3.4455,3.4417,3.4419,3.4414,3.4425,3.4503,3.4532,3.447,3.4468,3.4481,3.4567,3.4595,3.4604,3.4725,3.4633,3.4639,3.4643,3.4646,3.4936,3.4939,0,0,0,0,0,0,3.4275,3.4294,3.4452,3.4458,3.4346,3.442,3.4432,3.4471,3.4531,3.4538,3.4483,3.4479,3.4584,3.4596,3.4608,3.4735,3.464,3.4647,3.4651,3.4932,3.4936,3.494,0,0,0,0,0,0,3.427,3.4289,3.4448,3.4376,3.4396,3.4427,3.4471,3.4475,3.4503,3.4542,3.4547,3.4507,3.4582,3.4598,3.4688,3.4738,3.465,3.4656,3.4928,3.4934,3.4938,3.4989,0,0,0,0,0,0,3.4264,3.4288,3.4327,3.4377,3.4399,3.4525,3.4474,3.4479,3.4515,3.4511,3.4565,3.4571,3.4581,3.4678,3.4695,3.4747,3.4662,3.4924,3.4931,3.4937,3.4983,3.4995,3.5005,0,0,0,0,0,3.4257,3.4337,3.4329,3.4348,3.4449,3.4528,3.4541,3.4551,3.4519,3.4559,3.4584,3.4569,3.473,3.4687,3.4707,3.4761,3.4921,3.4929,3.4936,3.4978,3.4993,3.5005,0,0,0,0,0,0,3.4292,3.4343,3.4335,3.4433,3.4477,3.4524,3.4575,3.4566,3.462,3.4614,3.4624,3.4636,3.4729,3.4754,3.4705,3.4866,3.4821,3.4833,3.4846,3.486,3.4871,3.4864,3.4668,0,0,0,0,0,3.4311,3.4371,3.4413,3.4496,3.4518,3.4543,3.4578,3.4581,3.4627,3.4645,3.4677,3.4722,3.4783,3.4823,3.4881,3.4986,3.4999,3.5033,3.5045,3.5054,3.5064,3.5124,3.514,3.4965,3.4965,3.4965,0,0,3.4351,3.4387,3.4424,3.4504,3.4537,3.46,3.4558,3.4626,3.4673,3.4656,3.4743,3.4768,3.482,3.4918,3.4964,3.4942,3.5115,3.5064,3.5071,3.5076,3.5133,3.515,3.5165,3.4971,3.497,3.4969,0,0,3.4457,3.4489,3.4563,3.4598,3.465,3.4666,3.4684,3.4733,3.4749,3.4837,3.4826,3.4882,3.4986,3.5024,3.5057,3.5179,3.5168,3.5198,3.5257,3.5315,3.5329,3.5341,3.5387,3.5402,3.5208,3.5208,3.5208,0,3.4501,3.4594,3.4602,3.4671,3.4707,3.4694,3.477,3.4804,3.4872,3.4898,3.4873,3.5005,3.5039,3.5147,3.5177,3.5203,3.5225,3.5192,3.5326,3.5339,3.535,3.5394,3.541,3.5212,3.5211,3.5211,3.5211,0,3.4646,3.4711,3.4764,3.4831,3.4873,3.4945,3.4965,3.5007,3.5008,3.5027,3.5118,3.5158,3.5225,3.5251,3.5252,3.536,3.5346,3.5323,3.5279,3.537,3.5411,3.5428,3.5217,3.5215,3.5214,3.5214,0,0,3.4776,3.4847,3.4867,3.4898,3.4955,3.5006,3.5078,3.5143,3.518,3.5228,3.529,3.5379,3.536,3.5397,3.5402,3.5453,3.5549,3.5425,3.5426,3.5448,3.5673,3.569,3.5709,3.5542,3.5545,3.5548,3.5669,0,3.4888,3.5015,3.5025,3.514,3.5201,3.519,3.5254,3.5296,3.5317,3.5373,3.5396,3.5459,3.5428,3.5451,3.55,3.5527,3.5595,3.5518,3.5601,3.5604,3.559,3.573,3.5748,3.586,3.5685,3.5688,3.569,0,3.5035,3.5088,3.5209,3.5259,3.5285,3.5342,3.5403,3.5456,3.5505,3.5517,3.5559,3.5558,3.5634,3.5587,3.5693,3.564,3.5675,3.5694,3.5698,3.5707,3.5653,3.5744,3.5896,3.5914,3.5715,3.5713,3.5711,0,3.512,3.5221,3.5307,3.5334,3.5394,3.5434,3.5462,3.5507,3.5546,3.56,3.5626,3.5688,3.5723,3.5772,3.5788,3.5752,3.5894,3.5847,3.5907,3.5907,3.5938,3.5936,3.61,3.5959,3.5959,3.5959,3.5958,0,3.5245,3.5319,3.5346,3.5399,3.5483,3.5495,3.5578,3.5603,3.5644,3.5703,3.5698,3.5753,3.5771,3.583,3.5843,3.593,3.5945,3.5958,3.5961,3.5959,3.5957,3.5982,3.5975,3.5963,3.5962,3.5961,3.596,0,3.5354,3.5374,3.5467,3.5517,3.5532,3.5592,3.5635,3.5687,3.5706,3.5781,3.5799,3.5831,3.59,3.5921,3.6005,3.6014,3.6116,3.6111,3.6099,3.61,3.6159,3.6153,3.6345,3.6371,3.6212,3.6214,3.6215,0,3.5432,3.5489,3.5545,3.5584,3.5613,3.5675,3.5715,3.5729,3.5771,3.5832,3.5877,3.5946,3.6001,3.6113,3.6144,3.6208,3.6206,3.6269,3.6216,3.6213,3.6209,3.6205,3.6212,3.6279,3.628,3.6282,3.6283,0,3.557,3.5577,3.5635,3.5697,3.5744,3.5794,3.5841,3.5874,3.5895,3.5943,3.6013,3.6056,3.6142,3.6211,3.6276,3.6305,3.6299,3.6299,3.6317,3.6316,3.6307,3.6314,3.6127,3.6295,3.6294,3.6293,3.6292,3.6292,3.5667,3.5718,3.5766,3.583,3.5868,3.5913,3.5964,3.5991,3.605,3.612,3.6125,3.6202,3.6251,3.6339,3.6372,3.6433,3.6415,3.644,3.6446,3.6453,3.6458,3.6297,3.6445,3.6445,3.6444,3.6444,3.6444,0,3.5805,3.5836,3.5895,3.5962,3.6013,3.6002,3.6054,3.6098,3.6166,3.6212,3.6267,3.6349,3.6416,3.6453,3.652,3.6562,3.6561,3.658,3.6577,3.6584,3.647,3.6448,3.658,3.658,3.658,3.658,3.658,3.6579,3.5883,3.597,3.5983,3.6089,3.6119,3.6194,3.6225,3.6267,3.6305,3.6396,3.6452,3.6475,3.6518,3.6589,3.665,3.666,3.6685,3.6706,3.6714,3.6606,3.6592,3.6579,3.6559,3.6711,3.6711,3.6823,3.6824,3.6825]},{"header":{"parameterUnit":"m.s-1","parameterCategory":1,"la1":30.2991,"la2":30.254,"lo1":-89.0895,"lo2":-89.0444,"dy":0.0017,"dx":0.0017,"nx":28,"ny":28,"refTime":"2024-02-24T03:00:00:Z","depth":0,"parameterNumber":3,"parameterNumberName":"V-component_of_WINDS"},"data":[0,0,0,0,0,0,0,0,0,0,0,0,0,0,0,0,0,0,0,0,0,0,0,0,0,0,0,0,0,0,0,0,0,0,0,0,0,0,0,0,0,0,0,0,0,0,0,0,0,0,0,0,0,0,0,0,0,0,0.0413,0.0413,0,0.0411,0.0411,0.0411,0.0391,0.0391,0.039,0.039,0.0387,0.0388,0.0388,0,0,0,0,0,0,0,0,0,0,0,0,0,0.04,0.04,0.0413,0.0413,0.0413,0.0411,0.0411,0.0411,0.0391,0.0391,0.039,0.039,0.0387,0.0388,0.0388,0,0,0,0,0,0,0,0,0,0,0,0,0,0.0402,0.04,0.0413,0.0403,0.0402,0.0411,0.0411,0.0411,0.0391,0.0391,0.039,0.0389,0.0387,0.0388,0.0388,0.0406,0,0,0.039,0.039,0,0,0,0,0,0,0,0,0.0402,0.0403,0.0405,0.0404,0.0403,0.04,0.0405,0.0409,0.0392,0.0396,0.039,0.0389,0.0392,0.0392,0.0393,0.0406,0.0406,0.039,0.039,0.039,0.0391,0,0,0,0,0,0,0,0.0402,0.0403,0.0412,0.0405,0.0403,0.0398,0.0398,0.0406,0.0398,0.0395,0.0394,0.0394,0.0392,0.0393,0.0393,0.0406,0.039,0.039,0.0391,0.0391,0.0431,0.0431,0,0,0,0,0,0,0.0403,0.0403,0.0412,0.0412,0.0401,0.0399,0.0399,0.0402,0.0398,0.0396,0.0394,0.0393,0.0392,0.0393,0.0393,0.0413,0.039,0.0391,0.0391,0.043,0.0431,0.0432,0,0,0,0,0,0,0.0403,0.0404,0.0412,0.0407,0.0407,0.04,0.0404,0.0402,0.0404,0.0397,0.0396,0.0397,0.0392,0.0392,0.0402,0.0412,0.0391,0.0392,0.0429,0.043,0.0431,0.0453,0,0,0,0,0,0,0.0403,0.0404,0.0411,0.0407,0.0408,0.0422,0.0405,0.0403,0.0405,0.0403,0.0399,0.0398,0.0391,0.0402,0.0403,0.0413,0.0392,0.0428,0.043,0.0431,0.0451,0.0454,0.0457,0,0,0,0,0,0.0402,0.0418,0.0412,0.0413,0.0417,0.0423,0.0423,0.0415,0.0406,0.0412,0.0408,0.0398,0.0411,0.0403,0.0404,0.0414,0.0428,0.0429,0.0431,0.045,0.0454,0.0457,0,0,0,0,0,0,0.0424,0.0417,0.041,0.0425,0.0425,0.042,0.0428,0.042,0.0422,0.042,0.0409,0.0409,0.042,0.0418,0.0409,0.043,0.0418,0.0419,0.0431,0.0435,0.0438,0.0438,0.0393,0,0,0,0,0,0.043,0.0436,0.043,0.0443,0.0443,0.0436,0.0438,0.0432,0.0431,0.043,0.0427,0.0426,0.0429,0.0432,0.0435,0.045,0.0449,0.0458,0.0461,0.0463,0.0465,0.0472,0.0475,0.0437,0.0437,0.0437,0,0,0.0444,0.0441,0.0445,0.0448,0.0446,0.0452,0.0436,0.0443,0.0447,0.0431,0.0441,0.0438,0.0436,0.0448,0.0454,0.0447,0.0475,0.0465,0.0468,0.0468,0.0474,0.0477,0.0481,0.0438,0.0438,0.0438,0,0,0.0471,0.047,0.048,0.0479,0.0477,0.0472,0.0474,0.047,0.0467,0.0476,0.0465,0.0469,0.0476,0.0475,0.0475,0.05,0.0491,0.0501,0.0517,0.0524,0.0527,0.0529,0.0537,0.054,0.0503,0.0503,0.0503,0,0.0488,0.0496,0.0487,0.0494,0.0495,0.0481,0.0491,0.049,0.049,0.049,0.0483,0.049,0.0488,0.0499,0.0505,0.0506,0.0508,0.0502,0.0527,0.053,0.0532,0.0539,0.0543,0.0504,0.0504,0.0504,0.0504,0,0.0517,0.0523,0.0531,0.053,0.0532,0.0541,0.0532,0.0535,0.0528,0.0523,0.0532,0.0528,0.053,0.0532,0.0526,0.0542,0.0538,0.0529,0.0516,0.0537,0.0544,0.0547,0.0506,0.0506,0.0505,0.0505,0,0,0.0559,0.0551,0.0555,0.0553,0.055,0.0554,0.0561,0.0562,0.0565,0.0564,0.057,0.0575,0.0566,0.0567,0.056,0.0565,0.0584,0.0555,0.0555,0.056,0.0601,0.0607,0.0611,0.0578,0.0578,0.0579,0.06,0,0.0584,0.0597,0.0588,0.0602,0.0606,0.0592,0.0598,0.0597,0.0592,0.0595,0.0589,0.0593,0.0581,0.0581,0.0586,0.0581,0.0592,0.0579,0.0582,0.0582,0.0583,0.0615,0.0622,0.0643,0.0603,0.0604,0.0604,0,0.0616,0.0616,0.0631,0.0625,0.0626,0.0632,0.0632,0.0635,0.0632,0.0628,0.0627,0.0618,0.0624,0.0611,0.0619,0.061,0.0611,0.0608,0.0609,0.0609,0.0594,0.0615,0.0649,0.0652,0.0608,0.0608,0.0608,0,0.0644,0.0648,0.0657,0.0656,0.065,0.0654,0.0651,0.0648,0.0648,0.0648,0.0648,0.0649,0.0649,0.0649,0.064,0.0631,0.0648,0.0635,0.0644,0.0644,0.0649,0.0648,0.0683,0.065,0.065,0.065,0.0649,0,0.0674,0.0683,0.0669,0.0675,0.0684,0.0673,0.0683,0.0678,0.0675,0.0679,0.0666,0.067,0.0658,0.066,0.0653,0.066,0.066,0.0656,0.0654,0.0657,0.0658,0.0657,0.0656,0.065,0.065,0.065,0.065,0,0.0707,0.0698,0.0707,0.0699,0.0697,0.0704,0.0698,0.0702,0.0696,0.0701,0.0701,0.0692,0.0693,0.0684,0.0685,0.068,0.069,0.0685,0.0691,0.0689,0.0699,0.0698,0.0735,0.0739,0.0703,0.0704,0.0704,0,0.0726,0.0732,0.0725,0.0727,0.0725,0.0728,0.0728,0.0717,0.0718,0.0714,0.0718,0.0719,0.0719,0.0722,0.0715,0.0715,0.071,0.0723,0.071,0.0712,0.0709,0.0709,0.0709,0.0726,0.0726,0.0726,0.0727,0,0.076,0.0756,0.0757,0.0756,0.0757,0.0756,0.0754,0.0756,0.0744,0.0746,0.0747,0.0747,0.0747,0.0747,0.0745,0.0742,0.0732,0.0731,0.0733,0.0736,0.0738,0.0736,0.0698,0.073,0.073,0.0729,0.0729,0.0729,0.0787,0.0791,0.0787,0.0788,0.0785,0.0784,0.0787,0.0781,0.0782,0.0781,0.0774,0.0776,0.0772,0.0768,0.0765,0.0766,0.076,0.0764,0.0764,0.0765,0.0767,0.0738,0.0766,0.0766,0.0766,0.0766,0.0766,0,0.082,0.0816,0.0817,0.0815,0.0816,0.0806,0.0803,0.0804,0.0807,0.0803,0.0803,0.0804,0.0804,0.0796,0.0795,0.0797,0.0793,0.0798,0.0797,0.0796,0.0773,0.0771,0.0801,0.0801,0.0801,0.0801,0.0801,0.0801,0.0837,0.0844,0.0839,0.0844,0.084,0.0842,0.0841,0.0839,0.0836,0.0837,0.0837,0.0832,0.0826,0.0824,0.0824,0.0821,0.0821,0.0827,0.0823,0.0801,0.0798,0.0795,0.0793,0.0827,0.0827,0.0846,0.0847,0.0847]}]]